星链-3184 (STARLINK-3184 )

导读 | 豆包AI

STARLINK-3184是美国SpaceX星链(Starlink)项目中的低轨通信卫星,于2022年1月19日发射入轨,属于星链V1.5系列卫星,配备激光星间链路模块,支持卫星间直接通信,助力构建全球覆盖的高效卫星互联网。作为星链星座的组成部分,它承担着为全球用户提供高速宽带互联网接入服务的任务,增强了星座的覆盖能力与连接稳定性,推动星链全球互联网服务的部署落地。

基本信息
目录编号:
51143
目录名称:
STARLINK-3184
国际标识:
2022-005AR
轨道中心:
EARTH
卫星名称:
星链-3184
卫星全名:
星链-3184 (STARLINK-3184 )
卫星状态:
在轨 (已飞行1563 天)
发射日期:
2022-01-19 UTC
国别 :
美国 (US)
星等 :
--
轨道信息
数据来源 国际轨道数据 AOE轨道数据
星历时间 2026-04-30T14:53:32+0800
19小时前
查看轨道信息
2026-04-27T12:00:00+0800
3天前
查看轨道信息
半长轴 6917.876km 6917.886km
偏心率 0.0001425 0.0001409
轨道倾角 53.218° 53.217°
近地点辐角 87.992° 92.058°
升交点赤经 77.490° 91.500°
平近点角 272.124° 228.749°
近地点 538.753km 538.774km
远地点 540.725km 540.724km
周期 95.437分钟 95.438分钟
每日圈数 15.088415 15.088384
详细信息
固有亮度:
5
最大亮度:
2.5
卫星平台:
Starlink v1.5
覆盖范围:
全球
运营商:
太空探索技术公司
运营商所在国:
美国
制造商(研发单位):
太空探索技术公司
制造商所在国:
美国
使用方式:
暂无
卫星简介
星链(Starlink)计划是由太空探索技术公司(SpaceX)提出的一个巨型低轨卫星互联网星座项目,计划在2019年至2024年间在太空搭建由约1.2万颗卫星组成的“星链”网络,其中1584颗将部署在地球上空550千米处的近地轨道,并从2020年开始工作。该卫星仍在工作。
2D轨道图
3D轨道图
轨道高度分析图
轨道倾角分析图
轨道综合分析图
查看轨道综合分析图